Location: Strawberry
(45.6646°N, 111.9596°W)
Time: 19:26:41
(UTC+00:00)

RS-15 - Pass Details

Date: 03 December 2022
Orbit: 1883 x 2162 km, 64.8° (Epoch: 08 February)

Event Time Altitude Azimuth Distance (km) Brightness Sun altitude
Rises 00:14:28 0° 294° (WNW) 5,687 11.1 -5.3°
Reaches altitude 10° 00:18:44 10° 305° (NW) 4,688 10.5 -6.0°
Maximum altitude 00:29:18 31° 4° (N) 3,266 9.0 -7.7°
Enters shadow 00:39:32 10° 63° (ENE) 4,565 9.3 -9.3°
